This is the latest recevied weather packets stored in our database for station/object AC8JV. If no packets are shown the sender has not sent any weather packets the latest 10 day(s).
| Time | Temp. | Humidity | Pressure | Rain* | Wind** | Luminosity | Snow |
|---|---|---|---|---|---|---|---|
| 1777744808 | 9.44° C | 50% | 1019.2 hPa | 0 mm | - | - | - |
| 1777744208 | 8.89° C | 46% | 1019.2 hPa | 0 mm | - | - | - |
| 1777743615 | 8.89° C | 48% | 1019.3 hPa | 0 mm | - | - | - |
| 1777742999 | 8.89° C | 51% | 1019.3 hPa | 0 mm | - | - | - |
| 1777742401 | 8.89° C | 46% | 1019.4 hPa | 0 mm | - | - | - |
| 1777741802 | 8.89° C | 47% | 1019.5 hPa | 0 mm | - | - | - |
| 1777741200 | 8.89° C | 46% | 1019.5 hPa | 0 mm | - | - | - |
| 1777740655 | 8.89° C | 52% | 1019.6 hPa | 0 mm | - | - | - |
| 1777740003 | 8.33° C | 54% | 1019.7 hPa | 0 mm | - | - | - |
| 1777739460 | 7.78° C | 52% | 1019.6 hPa | 0 mm | - | - | - |
| 1777738801 | 7.78° C | 53% | 1019.8 hPa | 0 mm | - | - | - |
| 1777738229 | 7.22° C | 56% | 1019.8 hPa | 0 mm | - | - | - |
| 1777737606 | 6.67° C | 56% | 1020.1 hPa | 0 mm | - | - | - |
| 1777736999 | 6.67° C | 56% | 1020.1 hPa | 0 mm | - | - | - |
| 1777736401 | 6.67° C | 58% | 1020.1 hPa | 0 mm | - | - | - |
| 1777735825 | 6.11° C | 55% | 1020.1 hPa | 0 mm | - | - | - |
| 1777735200 | 7.22° C | 53% | 1020 hPa | 0 mm | - | - | - |
| 1777734602 | 7.22° C | 54% | 1019.8 hPa | 0 mm | - | - | - |
| 1777734029 | 6.67° C | 54% | 1019.8 hPa | 0 mm | - | - | - |
| 1777733399 | 6.67° C | 53% | 1019.8 hPa | 0 mm | - | - | - |
| 1777732799 | 6.67° C | 54% | 1019.8 hPa | 0 mm | - | - | - |
| 1777732220 | 6.67° C | 53% | 1019.8 hPa | 0 mm | - | - | - |
| 1777731599 | 6.67° C | 57% | 1019.8 hPa | 0 mm | - | - | - |
| 1777731001 | 6.67° C | 62% | 1020 hPa | 0 mm | - | - | - |
| 1777730423 | 6.11° C | 61% | 1019.9 hPa | 0 mm | - | - | - |
* Rain latest hour (hover to see other rain measurements)
** Current wind speed in m/s (hover to see current wind gust speed)